GOES 8 [-]

Last updated on Nov. 21, 2019, 4:15 a.m. UTC

1 23051U 94022A   19323.36886262 -.00000219  00000-0  00000-0 0  9990
2 23051  12.3443  31.2131 0006609 288.7983 185.7384  0.98906176100370
UTC
Height (km)
Latitude
Longitude
Inclination
Orbital Period
UTC large
Height (km)
Speed (km/s)
/
Latitude / Longitude
Inclination (degrees)
Orbital Period (minutes)
Azimuth
Elevation
Range (km)
Doppler Factor
iOS Compass Heading
iOS Angle

Next 30 passes for location: Hong Kong

Rise time Rise Azimuth (degrees) Set time Set Azimuth (degrees) Duration Max altitude (degrees)

No matching passes for this satellites